星链-4202 (STARLINK-4202 )

导读 | 星芒AI

STARLINK-4202 是 SpaceX Starlink 项目中的一颗低轨通信卫星,属于第 21 批部署的星链卫星群。该卫星于 2023 年发射,运行在约 550 公里的轨道高度,旨在为全球用户提供高速互联网服务。作为 Starlink 二代卫星之一,它具备更强的通信能力和更高效的星间链路,有助于提升网络覆盖和稳定性。该卫星采用先进推进系统,支持轨道调整和最终离轨,以减少太空碎片风险。

基本信息
目录编号:
52848
目录名称:
STARLINK-4202
国际标识:
2022-062U
轨道中心:
EARTH
卫星名称:
星链-4202
卫星全名:
星链-4202 (STARLINK-4202 )
卫星状态:
在轨 (已飞行1283 天)
发射日期:
2022-06-17 UTC
国别 :
美国 (US)
星等 :
--
轨道信息
数据来源 国际轨道数据 AOE轨道数据
星历时间 2025-12-21T04:09:17+0800
9小时前
查看轨道信息
2025-12-17T16:00:00+0800
3天前
查看轨道信息
半长轴 6917.878km 6917.861km
偏心率 0.0001357 0.0001583
轨道倾角 53.218° 53.218°
近地点辐角 89.096° 87.409°
升交点赤经 28.091° 43.835°
平近点角 271.019° 295.928°
近地点 538.802km 538.63km
远地点 540.68km 540.822km
周期 95.437分钟 95.437分钟
每日圈数 15.088411 15.088465
详细信息
固有亮度:
5
最大亮度:
2.5
卫星平台:
Starlink v1.5
覆盖范围:
全球
运营商:
太空探索技术公司
运营商所在国:
美国
制造商(研发单位):
太空探索技术公司
制造商所在国:
美国
使用方式:
暂无
卫星简介
星链(Starlink)计划是由太空探索技术公司(SpaceX)提出的一个巨型低轨卫星互联网星座项目,计划在2019年至2024年间在太空搭建由约1.2万颗卫星组成的“星链”网络,其中1584颗将部署在地球上空550千米处的近地轨道,并从2020年开始工作。该卫星仍在工作。
2D轨道图
3D轨道图
轨道高度分析图
轨道倾角分析图
轨道综合分析图
查看轨道综合分析图